EZY464 EGPH-EGKK

Flight info

Callsign EZY464
Flight time 1h 2m
Altitude 33000
Route GOSAM P600 FENIK L612 NAVSO DCT ADZOP DCT EGTOC DCT KEPAD L151 DISIT
Aircraft A320/M-SDE3FGHIRWY/LB1

Departure

Time 2026-04-20 21:35
Airport Edinburgh Airport (EGPH)

Arrival

Time 2026-04-20 22:37
Airport London Gatwick Airport (EGKK)
Time Latitude Longitude Altitude Speed Heading
2026-04-20 21:09 55.94878 -3.36545 107 ft 0 kts 149°
2026-04-20 21:23 55.94895 -3.36563 104 ft 4 kts 149°
2026-04-20 21:24 55.94917 -3.36586 104 ft 4 kts 158°
2026-04-20 21:24 55.94941 -3.36592 104 ft 4 kts 204°
2026-04-20 21:24 55.94954 -3.36574 106 ft 0 kts 239°
2026-04-20 21:27 55.94951 -3.36583 105 ft 4 kts 239°
2026-04-20 21:27 55.94941 -3.36613 105 ft 2 kts 238°
2026-04-20 21:28 55.94935 -3.36631 106 ft 5 kts 238°
2026-04-20 21:28 55.94914 -3.36690 106 ft 5 kts 238°
2026-04-20 21:28 55.94897 -3.36744 106 ft 5 kts 248°
2026-04-20 21:28 55.94905 -3.36802 106 ft 5 kts 304°
2026-04-20 21:29 55.94922 -3.36854 105 ft 8 kts 287°
2026-04-20 21:29 55.94903 -3.36959 104 ft 9 kts 240°
2026-04-20 21:29 55.94868 -3.37061 105 ft 11 kts 237°
2026-04-20 21:29 55.94827 -3.37184 105 ft 11 kts 239°
2026-04-20 21:30 55.94790 -3.37292 106 ft 9 kts 239°
2026-04-20 21:30 55.94762 -3.37376 107 ft 9 kts 239°
2026-04-20 21:30 55.94735 -3.37454 110 ft 8 kts 238°
2026-04-20 21:30 55.94692 -3.37580 111 ft 13 kts 238°
2026-04-20 21:31 55.94652 -3.37693 113 ft 9 kts 238°
2026-04-20 21:31 55.94608 -3.37824 113 ft 14 kts 239°
2026-04-20 21:31 55.94560 -3.37967 113 ft 13 kts 239°
2026-04-20 21:31 55.94516 -3.38099 109 ft 13 kts 239°
2026-04-20 21:32 55.94471 -3.38232 110 ft 12 kts 239°
2026-04-20 21:32 55.94428 -3.38360 112 ft 16 kts 238°
2026-04-20 21:32 55.94370 -3.38530 113 ft 14 kts 239°
2026-04-20 21:32 55.94321 -3.38677 115 ft 14 kts 239°
2026-04-20 21:33 55.94283 -3.38800 118 ft 8 kts 255°
2026-04-20 21:33 55.94298 -3.38873 116 ft 7 kts 314°
2026-04-20 21:33 55.94341 -3.38924 119 ft 9 kts 329°
2026-04-20 21:33 55.94397 -3.38962 115 ft 9 kts
2026-04-20 21:34 55.94437 -3.38900 116 ft 8 kts 55°
2026-04-20 21:34 55.94442 -3.38886 116 ft 0 kts 57°
2026-04-20 21:34 55.94532 -3.38631 113 ft 63 kts 58°
2026-04-20 21:34 55.94875 -3.37614 111 ft 126 kts 59°
2026-04-20 21:35 55.95403 -3.36056 337 ft 157 kts 60°
2026-04-20 21:35 55.95991 -3.34397 1033 ft 158 kts 52°
2026-04-20 21:35 55.96797 -3.33023 1620 ft 168 kts 45°
2026-04-20 21:35 55.97725 -3.31523 2001 ft 192 kts 45°
2026-04-20 21:36 55.98759 -3.29848 2437 ft 215 kts 45°
2026-04-20 21:36 56.00043 -3.28214 2908 ft 241 kts 21°
2026-04-20 21:36 56.01755 -3.28176 3682 ft 259 kts 344°
2026-04-20 21:36 56.03235 -3.30060 4547 ft 272 kts 309°
2026-04-20 21:37 56.03963 -3.33189 4927 ft 277 kts 275°
2026-04-20 21:37 56.03759 -3.36597 5032 ft 277 kts 253°
2026-04-20 21:37 56.03102 -3.39891 5637 ft 283 kts 247°
2026-04-20 21:37 56.02357 -3.43148 5967 ft 282 kts 247°
2026-04-20 21:38 56.01659 -3.46406 6028 ft 280 kts 249°
2026-04-20 21:38 56.01036 -3.49707 6038 ft 280 kts 252°
2026-04-20 21:38 56.00480 -3.53032 6034 ft 279 kts 253°
2026-04-20 21:38 55.99964 -3.56390 6029 ft 279 kts 255°
2026-04-20 21:39 55.99474 -3.59750 6030 ft 279 kts 255°
2026-04-20 21:39 55.98996 -3.63111 6029 ft 279 kts 255°
2026-04-20 21:39 55.98520 -3.66475 6031 ft 279 kts 255°
2026-04-20 21:39 55.98042 -3.69839 6030 ft 279 kts 255°
2026-04-20 21:40 55.97568 -3.73155 6028 ft 279 kts 255°
2026-04-20 21:40 55.97087 -3.76514 6015 ft 279 kts 255°
2026-04-20 21:40 55.96602 -3.79872 6012 ft 279 kts 255°
2026-04-20 21:40 55.96115 -3.83227 6008 ft 279 kts 255°
2026-04-20 21:41 55.95626 -3.86584 6011 ft 280 kts 255°
2026-04-20 21:41 55.95134 -3.89946 6011 ft 280 kts 255°
2026-04-20 21:41 55.94643 -3.93304 6015 ft 280 kts 255°
2026-04-20 21:41 55.94145 -3.96660 6013 ft 279 kts 252°
2026-04-20 21:42 55.93405 -3.99863 6009 ft 280 kts 240°
2026-04-20 21:42 55.92328 -4.02736 6009 ft 279 kts 228°
2026-04-20 21:42 55.90969 -4.05173 6014 ft 276 kts 217°
2026-04-20 21:42 55.89412 -4.07155 6009 ft 275 kts 212°
2026-04-20 21:43 55.87834 -4.09077 6006 ft 275 kts 211°
2026-04-20 21:43 55.86259 -4.11006 6011 ft 275 kts 212°
2026-04-20 21:43 55.84686 -4.12934 6010 ft 275 kts 211°
2026-04-20 21:43 55.83112 -4.14860 6008 ft 275 kts 212°
2026-04-20 21:44 55.81537 -4.16785 6004 ft 274 kts 212°
2026-04-20 21:44 55.79967 -4.18704 6011 ft 274 kts 212°
2026-04-20 21:44 55.78397 -4.20625 6027 ft 276 kts 212°
2026-04-20 21:44 55.76813 -4.22583 6855 ft 277 kts 212°
2026-04-20 21:45 55.75228 -4.24555 7763 ft 279 kts 212°
2026-04-20 21:45 55.73563 -4.26312 8627 ft 279 kts 199°
2026-04-20 21:45 55.71690 -4.27144 9493 ft 278 kts 182°
2026-04-20 21:45 55.69764 -4.26938 10338 ft 279 kts 165°
2026-04-20 21:46 55.67947 -4.25730 10945 ft 286 kts 149°
2026-04-20 21:46 55.66134 -4.23954 11182 ft 309 kts 148°
2026-04-20 21:46 55.64189 -4.22018 11405 ft 331 kts 149°
2026-04-20 21:46 55.62183 -4.20030 12014 ft 337 kts 149°
2026-04-20 21:47 55.60121 -4.18000 12743 ft 341 kts 149°
2026-04-20 21:47 55.58040 -4.15959 13471 ft 344 kts 149°
2026-04-20 21:47 55.55934 -4.13900 14219 ft 347 kts 149°
2026-04-20 21:47 55.53812 -4.11834 14868 ft 350 kts 149°
2026-04-20 21:48 55.51672 -4.09752 15488 ft 353 kts 149°
2026-04-20 21:48 55.49511 -4.07646 16126 ft 356 kts 149°
2026-04-20 21:48 55.47333 -4.05517 16751 ft 359 kts 149°
2026-04-20 21:48 55.45138 -4.03378 17375 ft 362 kts 149°
2026-04-20 21:49 55.42920 -4.01228 17945 ft 366 kts 150°
2026-04-20 21:49 55.40676 -3.99058 18524 ft 369 kts 150°
2026-04-20 21:49 55.38416 -3.96871 19045 ft 373 kts 150°
2026-04-20 21:49 55.36135 -3.94663 19533 ft 376 kts 150°
2026-04-20 21:50 55.33834 -3.92444 20033 ft 379 kts 150°
2026-04-20 21:50 55.31509 -3.90208 20511 ft 382 kts 150°
2026-04-20 21:50 55.29168 -3.87960 20979 ft 385 kts 150°
2026-04-20 21:50 55.26840 -3.85728 21459 ft 388 kts 150°
2026-04-20 21:51 55.24456 -3.83444 21858 ft 393 kts 150°
2026-04-20 21:51 55.21994 -3.81296 22296 ft 397 kts 156°
2026-04-20 21:51 55.19366 -3.79745 22745 ft 401 kts 162°
2026-04-20 21:51 55.16681 -3.78278 23136 ft 406 kts 161°
2026-04-20 21:52 55.13977 -3.76795 23576 ft 409 kts 162°
2026-04-20 21:52 55.11254 -3.75301 24010 ft 411 kts 161°
2026-04-20 21:52 55.08511 -3.73800 24329 ft 415 kts 161°
2026-04-20 21:52 55.05754 -3.72296 24691 ft 417 kts 161°
2026-04-20 21:53 55.02975 -3.70781 25057 ft 419 kts 162°
2026-04-20 21:53 55.00182 -3.69257 25364 ft 422 kts 162°
2026-04-20 21:53 54.97372 -3.67722 25710 ft 424 kts 162°
2026-04-20 21:53 54.94583 -3.66201 26009 ft 428 kts 163°
2026-04-20 21:54 54.91725 -3.64646 26263 ft 432 kts 163°
2026-04-20 21:54 54.88842 -3.63080 26565 ft 435 kts 163°
2026-04-20 21:54 54.85941 -3.61510 26885 ft 438 kts 163°
2026-04-20 21:54 54.83023 -3.59936 27186 ft 441 kts 163°
2026-04-20 21:55 54.80082 -3.58355 27492 ft 443 kts 163°
2026-04-20 21:55 54.77128 -3.56768 27790 ft 445 kts 163°
2026-04-20 21:55 54.74162 -3.55174 28089 ft 448 kts 163°
2026-04-20 21:55 54.71178 -3.53573 28383 ft 450 kts 163°
2026-04-20 21:56 54.68174 -3.51966 28622 ft 453 kts 163°
2026-04-20 21:56 54.65146 -3.50353 28863 ft 457 kts 164°
2026-04-20 21:56 54.62104 -3.48735 29127 ft 459 kts 164°
2026-04-20 21:56 54.60077 -3.47656 29303 ft 461 kts 164°
2026-04-20 21:57 54.57010 -3.46019 29582 ft 463 kts 164°
2026-04-20 21:57 54.53936 -3.44380 29964 ft 462 kts 164°
2026-04-20 21:57 54.50865 -3.42745 30365 ft 462 kts 164°
2026-04-20 21:57 54.47793 -3.41114 30691 ft 462 kts 164°
2026-04-20 21:58 54.44722 -3.39487 30991 ft 462 kts 165°
2026-04-20 21:58 54.41643 -3.37861 31200 ft 464 kts 165°
2026-04-20 21:58 54.38549 -3.36231 31450 ft 466 kts 165°
2026-04-20 21:58 54.35450 -3.34598 31755 ft 466 kts 165°
2026-04-20 21:59 54.32349 -3.32965 32062 ft 466 kts 164°
2026-04-20 21:59 54.29258 -3.31334 32407 ft 465 kts 164°
2026-04-20 21:59 54.26168 -3.29710 32715 ft 465 kts 164°
2026-04-20 21:59 54.23076 -3.28090 33023 ft 464 kts 165°
2026-04-20 22:00 54.19979 -3.26481 33266 ft 465 kts 166°
2026-04-20 22:00 54.13650 -3.24817 33377 ft 464 kts 177°
2026-04-20 22:01 54.07209 -3.23822 33373 ft 465 kts 177°
2026-04-20 22:01 54.00778 -3.22633 33369 ft 466 kts 171°
2026-04-20 22:02 53.94599 -3.19218 33351 ft 469 kts 161°
2026-04-20 22:02 53.88486 -3.15259 33364 ft 471 kts 161°
2026-04-20 22:03 53.82358 -3.11325 33380 ft 470 kts 161°
2026-04-20 22:03 53.76237 -3.07423 33375 ft 470 kts 161°
2026-04-20 22:04 53.70125 -3.03515 33363 ft 469 kts 161°
2026-04-20 22:04 53.64006 -2.99612 33339 ft 470 kts 162°
2026-04-20 22:05 53.57917 -2.95746 33337 ft 471 kts 162°
2026-04-20 22:05 53.51779 -2.91859 33339 ft 472 kts 162°
2026-04-20 22:06 53.45628 -2.87969 33350 ft 472 kts 162°
2026-04-20 22:06 53.39477 -2.84085 33371 ft 472 kts 162°
2026-04-20 22:07 53.33319 -2.80233 33352 ft 472 kts 162°
2026-04-20 22:07 53.27163 -2.76400 33352 ft 472 kts 162°
2026-04-20 22:08 53.21003 -2.72561 33338 ft 472 kts 162°
2026-04-20 22:08 53.14837 -2.68735 33334 ft 474 kts 162°
2026-04-20 22:09 53.08658 -2.64901 33329 ft 474 kts 162°
2026-04-20 22:09 53.02461 -2.61090 33334 ft 475 kts 162°
2026-04-20 22:10 52.96301 -2.57295 33313 ft 475 kts 163°
2026-04-20 22:10 52.90083 -2.53473 33326 ft 477 kts 163°
2026-04-20 22:11 52.83848 -2.49660 33340 ft 478 kts 163°
2026-04-20 22:11 52.77934 -2.44555 33340 ft 483 kts 148°
2026-04-20 22:12 52.72348 -2.38346 33317 ft 484 kts 149°
2026-04-20 22:12 52.66743 -2.32174 33319 ft 485 kts 149°
2026-04-20 22:13 52.61165 -2.26068 33318 ft 485 kts 149°
2026-04-20 22:13 52.55537 -2.19921 33321 ft 486 kts 149°
2026-04-20 22:14 52.49911 -2.13788 32775 ft 486 kts 150°
2026-04-20 22:14 52.47044 -2.10672 31356 ft 501 kts 150°
2026-04-20 22:14 52.44133 -2.07514 30137 ft 499 kts 150°
2026-04-20 22:14 52.41210 -2.04345 27993 ft 508 kts 150°
2026-04-20 22:15 52.38273 -2.01163 26752 ft 500 kts 149°
2026-04-20 22:15 52.35457 -1.98104 26426 ft 471 kts 149°
2026-04-20 22:15 52.32784 -1.95200 25736 ft 454 kts 149°
2026-04-20 22:15 52.30221 -1.92430 25085 ft 439 kts 149°
2026-04-20 22:16 52.27701 -1.89722 24456 ft 432 kts 148°
2026-04-20 22:16 52.25190 -1.87034 23820 ft 433 kts 150°
2026-04-20 22:16 52.22667 -1.84341 23151 ft 433 kts 150°
2026-04-20 22:16 52.20161 -1.81667 22564 ft 429 kts 149°
2026-04-20 22:17 52.17682 -1.79022 21958 ft 423 kts 149°
2026-04-20 22:17 52.15240 -1.76413 21412 ft 417 kts 149°
2026-04-20 22:17 52.12826 -1.73834 20867 ft 411 kts 149°
2026-04-20 22:17 52.10451 -1.71298 20358 ft 406 kts 148°
2026-04-20 22:18 52.08072 -1.68762 19994 ft 415 kts 148°
2026-04-20 22:18 52.05629 -1.66168 19631 ft 420 kts 148°
2026-04-20 22:18 52.03187 -1.63576 19255 ft 418 kts 149°
2026-04-20 22:18 52.00750 -1.60990 18887 ft 418 kts 148°
2026-04-20 22:19 51.98324 -1.58417 18512 ft 414 kts 148°
2026-04-20 22:19 51.95918 -1.55872 18128 ft 411 kts 148°
2026-04-20 22:19 51.93524 -1.53344 17770 ft 409 kts 148°
2026-04-20 22:19 51.91148 -1.50840 17413 ft 406 kts 148°
2026-04-20 22:20 51.88785 -1.48355 17062 ft 404 kts 148°
2026-04-20 22:20 51.86434 -1.45885 16719 ft 401 kts 148°
2026-04-20 22:20 51.84106 -1.43435 16364 ft 398 kts 147°
2026-04-20 22:20 51.81793 -1.41002 16015 ft 395 kts 147°
2026-04-20 22:21 51.79493 -1.38592 15661 ft 393 kts 148°
2026-04-20 22:21 51.77199 -1.36193 15366 ft 392 kts 147°
2026-04-20 22:21 51.74910 -1.33804 15312 ft 391 kts 147°
2026-04-20 22:21 51.72654 -1.31447 15334 ft 392 kts 147°
2026-04-20 22:22 51.70365 -1.29057 15324 ft 392 kts 147°
2026-04-20 22:22 51.68075 -1.26668 15299 ft 392 kts 147°
2026-04-20 22:22 51.65785 -1.24284 15301 ft 392 kts 147°
2026-04-20 22:22 51.63495 -1.21904 15300 ft 392 kts 147°
2026-04-20 22:23 51.61207 -1.19533 15309 ft 392 kts 148°
2026-04-20 22:23 51.58912 -1.17157 15295 ft 392 kts 148°
2026-04-20 22:23 51.56609 -1.14774 14580 ft 397 kts 147°
2026-04-20 22:23 51.54268 -1.12353 13768 ft 401 kts 147°
2026-04-20 22:24 51.51952 -1.09962 13476 ft 388 kts 147°
2026-04-20 22:24 51.49714 -1.07655 13340 ft 379 kts 147°
2026-04-20 22:24 51.47499 -1.05372 13185 ft 377 kts 147°
2026-04-20 22:24 51.45296 -1.03103 13030 ft 376 kts 147°
2026-04-20 22:25 51.43092 -1.00835 12871 ft 375 kts 147°
2026-04-20 22:25 51.40915 -0.98602 12319 ft 367 kts 147°
2026-04-20 22:25 51.38776 -0.96411 11272 ft 363 kts 147°
2026-04-20 22:25 51.36652 -0.94238 10503 ft 360 kts 147°
2026-04-20 22:26 51.34546 -0.92088 10252 ft 354 kts 146°
2026-04-20 22:26 51.32581 -0.90084 10113 ft 326 kts 147°
2026-04-20 22:26 51.30718 -0.88185 9972 ft 302 kts 147°
2026-04-20 22:27 51.27283 -0.84680 9441 ft 288 kts 146°
2026-04-20 22:27 51.25659 -0.83023 9307 ft 267 kts 146°
2026-04-20 22:27 51.24141 -0.81477 9101 ft 252 kts 146°
2026-04-20 22:27 51.22679 -0.79990 8664 ft 246 kts 146°
2026-04-20 22:28 51.21240 -0.78530 8165 ft 244 kts 146°
2026-04-20 22:28 51.19809 -0.77081 7668 ft 243 kts 145°
2026-04-20 22:28 51.18387 -0.75641 7179 ft 241 kts 144°
2026-04-20 22:28 51.16976 -0.74208 6700 ft 240 kts 144°
2026-04-20 22:29 51.15571 -0.72782 6190 ft 238 kts 144°
2026-04-20 22:29 51.14178 -0.71370 5710 ft 236 kts 144°
2026-04-20 22:29 51.12796 -0.69972 5235 ft 234 kts 144°
2026-04-20 22:29 51.11480 -0.68499 4733 ft 227 kts 128°
2026-04-20 22:30 51.10673 -0.66421 4252 ft 218 kts 109°
2026-04-20 22:30 51.10108 -0.64200 3768 ft 215 kts 107°
2026-04-20 22:30 51.09588 -0.62013 3351 ft 214 kts 106°
2026-04-20 22:30 51.09066 -0.59808 3082 ft 211 kts 106°
2026-04-20 22:31 51.08557 -0.57663 2996 ft 203 kts 106°
2026-04-20 22:31 51.08088 -0.55619 2999 ft 191 kts 99°
2026-04-20 22:31 51.08085 -0.53585 3006 ft 182 kts 78°
2026-04-20 22:31 51.08447 -0.51690 3002 ft 178 kts 53°
2026-04-20 22:32 51.09330 -0.50329 3005 ft 177 kts 45°
2026-04-20 22:32 51.10153 -0.48870 3007 ft 177 kts 54°
2026-04-20 22:32 51.10725 -0.47128 3011 ft 179 kts 67°
2026-04-20 22:32 51.11105 -0.45246 3009 ft 179 kts 72°
2026-04-20 22:33 51.11412 -0.43322 3004 ft 179 kts 74°
2026-04-20 22:33 51.11695 -0.41386 2890 ft 177 kts 74°
2026-04-20 22:33 51.11957 -0.39540 2681 ft 168 kts 75°
2026-04-20 22:33 51.12206 -0.37766 2452 ft 156 kts 75°
2026-04-20 22:34 51.12431 -0.36161 2262 ft 144 kts 75°
2026-04-20 22:34 51.12641 -0.34655 2072 ft 135 kts 75°
2026-04-20 22:34 51.12843 -0.33215 1880 ft 133 kts 75°
2026-04-20 22:34 51.13042 -0.31789 1699 ft 131 kts 75°
2026-04-20 22:35 51.13239 -0.30380 1511 ft 130 kts 76°
2026-04-20 22:35 51.13435 -0.28971 1333 ft 130 kts 76°
2026-04-20 22:35 51.13630 -0.27569 1146 ft 130 kts 76°
2026-04-20 22:35 51.13825 -0.26167 954 ft 129 kts 76°
2026-04-20 22:36 51.14019 -0.24769 767 ft 130 kts 75°
2026-04-20 22:36 51.14213 -0.23376 590 ft 129 kts 76°
2026-04-20 22:36 51.14406 -0.21981 417 ft 129 kts 76°
2026-04-20 22:36 51.14598 -0.20593 247 ft 128 kts 76°
2026-04-20 22:37 51.14775 -0.19315 212 ft 99 kts 78°
2026-04-20 22:37 51.14869 -0.18665 206 ft 16 kts 56°
2026-04-20 22:37 51.14897 -0.18627 209 ft 3 kts 50°
2026-04-20 22:37 51.14932 -0.18545 212 ft 12 kts 55°
2026-04-20 22:38 51.14985 -0.18435 208 ft 13 kts 52°
2026-04-20 22:38 51.15027 -0.18348 208 ft 0 kts 52°
2026-04-20 22:38 51.15030 -0.18343 217 ft 4 kts 52°
2026-04-20 22:39 51.15066 -0.18272 215 ft 10 kts 51°
2026-04-20 22:39 51.15121 -0.18203 207 ft 10 kts 14°
2026-04-20 22:39 51.15201 -0.18215 207 ft 13 kts 348°
2026-04-20 22:39 51.15293 -0.18247 208 ft 15 kts 347°
2026-04-20 22:40 51.15394 -0.18283 209 ft 15 kts 347°
2026-04-20 22:40 51.15500 -0.18321 205 ft 15 kts 348°
2026-04-20 22:40 51.15599 -0.18354 205 ft 13 kts 351°
2026-04-20 22:40 51.15660 -0.18255 209 ft 15 kts 76°
2026-04-20 22:41 51.15684 -0.18088 207 ft 17 kts 78°
2026-04-20 22:41 51.15709 -0.17904 213 ft 17 kts 78°
2026-04-20 22:41 51.15731 -0.17744 205 ft 15 kts 77°
2026-04-20 22:41 51.15754 -0.17580 212 ft 16 kts 77°
2026-04-20 22:42 51.15774 -0.17436 205 ft 9 kts 78°
2026-04-20 22:42 51.15784 -0.17357 205 ft 1 kts 79°
2026-04-20 22:42 51.15787 -0.17338 205 ft 3 kts 78°
2026-04-20 22:42 51.15790 -0.17310 205 ft 4 kts 78°
2026-04-20 22:43 51.15793 -0.17286 213 ft 3 kts 78°
2026-04-20 22:43 51.15799 -0.17254 208 ft 4 kts 68°
2026-04-20 22:43 51.15830 -0.17240 207 ft 5 kts 352°
2026-04-20 22:43 51.15859 -0.17247 210 ft 4 kts 349°
2026-04-20 22:44 51.15880 -0.17254 205 ft 2 kts 347°
2026-04-20 22:44 51.15882 -0.17255 205 ft 0 kts 347°